Regional Weather Roundup
Issued by NWS Newport/Morehead, NC

Current Version | Previous Version | Graphics & Text | Print | Product List | Glossary On
Versions: 1 2 3 4 5 6 7 8 9 10 11 12 13 14 15 16 17 18 19 20 21 22 23 24 25 26 27 28 29 30 31 32 33 34 35 36 37 38 39 40 41 42 43 44 45 46 47 48 49 50
884 ASUS42 KMHX 121113 RWRMHX WEATHER ROUNDUP FOR EASTERN NORTH CAROLINA NATIONAL WEATHER SERVICE NEWPORT/MOREHEAD CITY NC 600 AM EST TUE DEC 12 2017 NOTE: "FAIR" INDICATES FEW OR NO CLOUDS BELOW 12,000 FEET WITH NO SIGNIFICANT WEATHER AND/OR OBSTRUCTIONS TO VISIBILITY NCZ015>017-031-032-045>047-102-103-121200- NORTH COAST CITY SKY/WX TMP DP RH WIND PRES REMARKS EDENTON PTCLDY 42 36 79 S10 29.79F ELIZABETH CITY PTCLDY 43 38 82 S10 29.77F KITTY HAWK SUNNY 43 34 71 SW5 29.79F MANTEO CLEAR 42 36 79 SW13 29.81F $$ NCZ045>047-081-094-103-104-121200- CENTRAL COAST CITY SKY/WX TMP DP RH WIND PRES REMARKS FRISCO CLEAR 55 44 66 SW12G22 29.83F $$ NCZ095-097-098-100-101-121200- SOUTHERN COAST CITY SKY/WX TMP DP RH WIND PRES REMARKS BEAUFORT CLEAR 55 44 66 SW17 29.83F CEDAR ISLAND NOT AVBL JACKSONVILLE CLEAR 47 39 74 SW8 29.82F PINEY ISLAND N/A N/A N/A N/A S7 29.82F WILMINGTON CLEAR 49 40 71 SW10 29.83F $$ NCZ011>013-027>030-043-044-078>080-089-090>093-098-121200- COASTAL PLAIN CITY SKY/WX TMP DP RH WIND PRES REMARKS AHOSKIE PTCLDY 35 32 89 S5 29.75F CLINTON CLEAR 40 37 87 S3 29.80F ELIZABETHTOWN NOT AVBL GOLDSBORO PTCLDY 42 35 74 S6 29.77F GREENVILLE PTCLDY 41 34 75 SW8 29.80F HAVELOCK CLEAR 42 39 89 SW5 29.83F KENANSVILLE CLEAR 36 34 93 CALM 29.80F KINSTON PTCLDY 41 36 81 SW8 29.80S NEW BERN CLEAR 42 38 85 S9 29.81F RICHLANDS CLEAR 39 38 96 S9 29.82 ROCKY MOUNT PTCLDY 39 35 86 S7 29.76F WASHINGTON CLEAR 39 34 82 S5 29.79F WHITEVILLE CLEAR 41 36 81 S5 29.82S $$ AMZ130-135-150-152-154-156-158-170-250-252-270-ANZ085-086-088-633-658-670-121200- MARINE OBSERVATIONS STATION/POSITION TIME TEMP WIND PRES WAVE SWELL AIR SEA DIR/SP/G HT/PER HT/PER (UTC) (F) (DEG/KT/KT) (MB) (FT/S) (FT/S) CHESAPEAKE LIGHT NOT AVBL 64 E VA BEACH 0950 55 60 230/ 16/ 21 1009.3 3/ 8 2/ 8 DUCK 1048 45 55 190/ 9/ 11 1008.2 2 E DUCK 1030 54 N/A 1/ 9 OREGON INLET 1042 48 46 200/ 14/ 16 1009.4 13E OREGON INLT 1048 56 N/A 2/ 9 2/ 9 HATTERAS CG 1048 55 54 240/ 13/ 17 1009.7 DIAMOND BUOY 1050 61 74 230/ 21/ 27 1010.4 4/ 5 2/ 9 CAPE LOOKOUT 1100 240/ 15/ 19 1010.4 BEAUFORT LAB 1048 56 52 230/ 7/ 14 1010.1 30 SE NEW RVR IN NOT AVBL 30 SE NEW RVR IN 1030 67 N/A 6/ 6 27 SE WRIGHTSVLE NOT AVBL 5 SE WRIGHTSVLE 1008 56 58 240/ 16/ 19 1010.7 225 S CAPE HAT 0950 68 76 230/ 19/ 23 1013.7 5/ 6 2/ 8 41 SE CHARLESTON 1040 250/ 23/ 27 1012.2 $$

USA.gov is the U.S. government's official web portal to all federal, state and local government web resources and services.